Content
SEND FEEDBACK

Daily
Averages
Monthly
Summary
United States of America

PUT IN BAY, OHIO


Home > North America > United States > Ohio
Elevation: 561 feet     Latitude: 41 39N     Longitude: 082 48W

WEATHER
 
SELECT A DAY
Number of Records: 124,292;   Date Range: 12/10/00 - 9/30/14
 
SHARE

PRINT THIS DATA

[ ← Previous Day ]
WEATHER ALMANAC - APRIL 6, 2013
[ Next Day → ]
[ °C ]   °F
Weather ElementAverageHighLow
Temperature36.4 °F45.9 °F (11:00 pm)25.9 °F (3:00 am)
Dewpoint21 °F30.4 °F (10:00 pm)14.7 °F (3:00 am)
Humidity52.6 %69 % (8:00 pm)31 % (2:00 pm)
Barometer30.15 in30.29 in (8:00 am)29.86 in (11:00 pm)
Wind Speed6.7 mph11.5 mph (10:00 am)
Wind Gust18.4 mph (5:00 pm)
Weather ElementAverage
Wind DirectionESE (115.2 °)

Weather ElementTotal
Precipitation---
Heating Degree Days29.1 (Base 65)
Averaged from 27 records on April 6, 2013
WEATHER CONDITIONS BREAKOUT
WIND DIRECTION BREAKOUT
WEATHER BY HOUR - APRIL 6, 2013
[ °C ]   °F
Local TimeTemperatureDewpointHumidityBarometerVisibilityWind DirectionWind SpeedGust SpeedPrecipitationEventsConditions
1:00 AM28.0 °F18.0 °F66 %30.24 inENE (70°)3.5 mph
2:00 AM28.0 °F15.0 °F46 %30.24 inENE (70°)3.5 mph
2:00 AM27.7 °F15.4 °F60 %30.24 inENE (70°)3.5 mph
3:00 AM25.9 °F14.7 °F63 %30.25 inENE (60°)2.3 mph
4:00 AM28.4 °F15.6 °F59 %30.25 inENE (60°)3.5 mph
5:00 AM29.3 °F16.3 °F58 %30.25 inEast (80°)2.3 mph
6:00 AM30.6 °F19.8 °F64 %30.25 inEast (90°)2.3 mph
7:00 AM33.1 °F21.2 °F62 %30.27 inESE (120°)2.3 mph
8:00 AM34.0 °F19.0 °F42 %30.29 inSE (130°)5.8 mph
8:00 AM33.8 °F19.4 °F56 %30.29 inSE (130°)5.8 mph
9:00 AM34.7 °F18.9 °F52 %30.28 inSE (130°)8.1 mph
10:00 AM36.1 °F17.1 °F46 %30.28 inSSE (150°)11.5 mph17.3 mph
11:00 AM37.0 °F18.0 °F46 %30.26 inSE (140°)10.4 mph
12:00 PM39.0 °F17.1 °F41 %30.25 inSE (130°)11.5 mph17.3 mph
1:00 PM40.8 °F18.7 °F41 %30.22 inSSE (150°)9.2 mph
2:00 PM41.0 °F21.0 °F31 %30.19 inSE (130°)8.1 mph
2:00 PM41.4 °F20.8 °F44 %30.19 inSE (130°)8.1 mph
3:00 PM42.1 °F19.0 °F40 %30.14 inSE (130°)8.1 mph
4:00 PM42.8 °F21.7 °F43 %30.10 inESE (120°)5.8 mph
5:00 PM42.6 °F21.0 °F42 %30.04 inSE (130°)10.4 mph18.4 mph
6:00 PM42.1 °F23.7 °F48 %30.00 inESE (120°)9.2 mph
7:00 PM39.9 °F27.9 °F62 %29.98 inESE (120°)9.2 mph
8:00 PM39.0 °F29.0 °F57 %29.95 inESE (120°)6.9 mph
8:00 PM38.7 °F29.1 °F69 %29.95 inESE (120°)6.9 mph
9:00 PM39.9 °F30.2 °F68 %29.93 inSE (130°)6.9 mph
10:00 PM41.9 °F30.4 °F64 %29.90 inSE (130°)5.8 mph
11:00 PM45.9 °F28.0 °F50 %29.86 inSSE (150°)9.2 mph
Hourly data recorded from CXHA, located miles away from Put In Bay, Ohio







STORIES FROM OUR PARTNERS